Regional Weather Roundup
Issued by NWS

Home | Current Version | Previous Version | Text Only | Print | Product List | Glossary Off
Versions: 1 2 3 4 5 6 7 8 9 10 11 12 13 14 15 16 17 18 19 20 21 22 23 24 25 26 27 28 29 30 31 32 33 34 35 36 37 38 39 40 41 42 43 44 45 46 47 48 49 50

000
ASUS43 KDMX 261206
RWRIA

WEATHER ROUNDUP FOR IOWA
NATIONAL WEATHER SERVICE DES MOINES IA
700 AM CDT MON JUN 26 2017

NOTE: "FAIR" INDICATES FEW OR NO CLOUDS BELOW 12,000 FEET WITH NO
SIGNIFICANT WEATHER AND/OR OBSTRUCTIONS TO VISIBILITY.

* - THESE STATIONS ARE NOT NWS STATIONS...THUS NOT UNDER NWS
QUALITY CONTROL.  THEY ALSO DO NOT REPORT WEATHER SUCH
AS PRECIPITATION OR FOG.

IAZ001>003-012>014-020>022-031>034-043>046-261300-
   NORTHWEST IOWA

CITY           SKY/WX    TMP DP  RH WIND       PRES   REMARKS
CARROLL *        N/A     55  54  94 VRB5      30.17F
CHEROKEE *     SUNNY     52  52 100 CALM      30.20R
DENISON *      CLOUDY    55  52  88 CALM      30.19F
LE MARS *      SUNNY     52  50  93 N6        30.22R
ORANGE CITY *  SUNNY     54  52  94 CALM      30.20S
SHELDON *      SUNNY     54  52  94 CALM      30.19S
SIOUX CITY     SUNNY     54  53  97 SE3       30.19S
6HR MIN TEMP:  54; 6HR MAX TEMP:  61; 6HR PCP:  0.25;

SPENCER        PTSUNNY   55  52  89 N7        30.20R
6HR MIN TEMP:  48; 6HR MAX TEMP:  56; 6HR PCP:  0.01;

STORM LAKE *   SUNNY     54  50  87 CALM      30.20R
$$

IAZ055>058-069>071-079>083-090>094-261300-
   SOUTHWEST IOWA

CITY           SKY/WX    TMP DP  RH WIND       PRES   REMARKS
ATLANTIC *     PTSUNNY   55  52  88 CALM      30.22R
AUDUBON *      CLOUDY    54  52  94 S3        30.22F
CLARINDA *     CLOUDY    55  55 100 NW5       30.24R
COUNCIL BLFS * LGT RAIN  55  54  94 E13       30.18F
CRESTON *      CLOUDY    55  50  82 NE13      30.23S
HARLAN  *      CLOUDY    55  54  94 NE7       30.26R
LAMONI         PTSUNNY   54  49  83 NE6       30.20F
6HR MIN TEMP:  51; 6HR MAX TEMP:  61; 6HR PCP:  0.01;

RED OAK *      LGT RAIN  55  54  94 NE8       30.24R
SHENANDOAH *   CLOUDY    55  54  94 NE5       30.24R
$$

IAZ047>049-059>061-072>074-084-261300-
   CENTRAL IOWA

CITY           SKY/WX    TMP DP  RH WIND       PRES   REMARKS
AMES           CLOUDY    57  56  96 SW5       30.21R
6HR MIN TEMP:  51; 6HR MAX TEMP:  58; 6HR PCP:  0.10;

ANKENY *       CLOUDY    57  54  88 MISG      30.24R
BOONE *        CLOUDY    55  52  88 SW5       30.19S
CHARITON *     CLOUDY    54  50  87 N6        30.25R
DES MOINES     RAIN      56  54  93 W5        30.25R FOG
6HR MIN TEMP:  56; 6HR MAX TEMP:  61; 6HR PCP:  0.08;

GRINNELL*      CLOUDY    56  51  82 W5        30.21S
KNOXVILLE *    LGT RAIN  55  52  88 N3        30.21S
MARSHALLTOWN   CLOUDY    56  53  90 W5        30.19R
6HR MIN TEMP:  52; 6HR MAX TEMP:  57; 6HR PCP: TRACE;

NEWTON *         N/A     55  54  94 W5        30.21S
PELLA *        LGT RAIN  55  53  94 SW5       30.23F
PERRY *        LGT RAIN  55  54  96 S10       30.18F
$$

IAZ004>006-015-016-023>025-035-036-261300-
   NORTH CENTRAL IOWA

CITY           SKY/WX    TMP DP  RH WIND       PRES   REMARKS
ALGONA *       SUNNY     55  54  94 NW7       30.20R
CLARION *        N/A     55  55 100 CALM      30.19R
ESTHERVILLE    SUNNY     52  52 100 W6        30.19R
6HR MIN TEMP:  49; 6HR MAX TEMP:  54;

FORT DODGE *   CLOUDY    55  52  88 SW5       30.20S
MASON CITY     MOSUNNY   54  50  86 W6        30.19S
6HR MIN TEMP:  51; 6HR MAX TEMP:  56;

FOREST CITY *    N/A     55  46  71 W3        30.18S
WEBSTER CITY * CLOUDY    55  54  94 W7        30.17S
IOWA FALLS *   CLOUDY    56  53  91 W5        30.20R
$$

IAZ007>011-017>019-026>030-037>042-050>054-066-261300-
   NORTHEAST IOWA

CITY           SKY/WX    TMP DP  RH WIND       PRES   REMARKS
CEDAR RAPIDS   CLOUDY    56  52  86 W9        30.17F
6HR MIN TEMP:  47; 6HR MAX TEMP:  56; 6HR PCP: TRACE;

CHARLES CITY * PTSUNNY   52  52 100 W6        30.18R
CLINTON *      CLOUDY    54  49  83 MISG      30.17R
DECORAH *      MOSUNNY   52  46  82 CALM      30.15S
DUBUQUE        PTSUNNY   53  46  77 W8        30.15S
6HR MIN TEMP:  48; 6HR MAX TEMP:  53;

MONTICELLO *   PTSUNNY   55  50  82 W7        30.16S
OELWEIN *      MOSUNNY   54  50  87 W9        30.18R
WATERLOO       MOSUNNY   56  50  80 W7        30.17R
6HR MIN TEMP:  49; 6HR MAX TEMP:  56; 6HR PCP: TRACE;

$$

IAZ064-065-067-068-078-261300-
   EAST CENTRAL IOWA

CITY           SKY/WX    TMP DP  RH WIND       PRES   REMARKS
DAVENPORT      LGT RAIN  54  48  80 W8G18     30.17S
6HR MIN TEMP:  49; 6HR MAX TEMP:  54; 6HR PCP: TRACE;

IOWA CITY      CLOUDY    59  49  69 W9        30.20S
6HR MIN TEMP:  51; 6HR MAX TEMP:  59;

MT. PLEASANT * CLOUDY    57  45  65 W6        30.22R
MUSCATINE *    CLOUDY    57  46  67 W10       30.20S
QUAD CITIES    CLOUDY    56  48  74 W8        30.18R
6HR MIN TEMP:  49; 6HR MAX TEMP:  56;

$$

IAZ062-063-075>077-085>089-095>099-261300-
   SOUTHEAST IOWA

CITY           SKY/WX    TMP DP  RH WIND       PRES   REMARKS
BURLINGTON     PTSUNNY   56  48  74 NW6       30.19S
6HR MIN TEMP:  48; 6HR MAX TEMP:  56;

FAIRFIELD *    CLOUDY    55  48  76 NW8       30.23R
FORT MADISON * MOSUNNY   55  48  76 W5        30.21S
KEOKUK *       SUNNY     55  50  82 CALM      30.19F
OSKALOOSA *    LGT RAIN  54  51  90 W7        30.22F
CENTERVILLE *    N/A     55  50  82 CALM      30.25R
OTTUMWA        LGT RAIN  56  52  86 N13       30.22S
6HR MIN TEMP:  46; 6HR MAX TEMP:  57; 6HR PCP:  0.03;

WASHINGTON *   PTSUNNY   57  48  72 W8        30.23R
$$

ABBREVIATIONS USED IN REMARKS
   TC - TEMPERATURES IN CELSIUS
  WCI - WIND CHILL INDEX
   HX - HEAT INDEX
  VSB - VISIBILITY
$$




USA.gov is the U.S. government's official web portal to all federal, state and local government web resources and services.